This demonstration page uses our WeatherBlox Daily Observations layout. Learn more.

Left ArrowRight Arrow

Hourly Observations for July 3, 2022

Temp ( °F °C ) Dew Point ( °F °C ) Humidity (%) Winds ( mph kmh ) Pressure ( in mb ) Visibility ( mi km ) Precip ( " mm )
12:53 am 00:53 Partly Cloudy 83 28.3 73 22.8 72 72 ESE 7 11 29.91 1013 10 16 0.00 0.00
1:53 am 01:53 Partly Cloudy 82 27.8 73 22.8 74 74 ESE 6 9 29.91 1013 10 16 0.00 0.00
2:53 am 02:53 Mostly Clear 82 27.8 73 22.8 74 74 SE 7 11 29.91 1013 10 16 0.00 0.00
3:53 am 03:53 Mostly Clear 82 27.8 74 23.3 77 77 SE 7 11 29.92 1013 10 16 0.00 0.00
4:53 am 04:53 Mostly Clear 81 27.2 74 23.3 79 79 SE 6 9 29.93 1014 10 16 0.00 0.00
5:53 am 05:53 Mostly Clear 80 26.7 73 22.8 79 79 SSE 7 11 29.93 1014 10 16 0.00 0.00
6:53 am 06:53 Mostly Sunny 81 27.2 73 22.8 77 77 S 6 9 29.95 1014 10 16 0.00 0.00
7:53 am 07:53 Mostly Sunny 82 27.8 73 22.8 74 74 S 8 13 29.96 1015 10 16 0.00 0.00
8:53 am 08:53 Partly Cloudy 85 29.4 74 23.3 70 70 SSW 9 15 29.98 1015 10 16 0.00 0.00
9:53 am 09:53 Mostly Sunny 87 30.6 74 23.3 65 65 S 7 11 29.98 1015 10 16 0.00 0.00
10:53 am 10:53 Mostly Sunny 89 31.7 74 23.3 61 61 S 9 15 29.98 1015 10 16 0.00 0.00
11:53 am 11:53 Mostly Cloudy 93 33.9 73 22.8 52 52 VRB 6 9 29.98 1015 10 16 0.00 0.00
12:53 pm 12:53 Mostly Cloudy 95 35 70 21.1 44 44 SSE 12 19 29.97 1015 10 16 0.00 0.00
1:53 pm 13:53 Mostly Cloudy 96 35.6 71 21.7 44 44 SSW 7 11 29.94 1014 10 16 0.00 0.00
2:53 pm 14:53 Mostly Cloudy 96 35.6 68 20 40 40 SSE 13 20 29.93 1013 10 16 0.00 0.00
3:53 pm 15:53 Partly Cloudy 99 37.2 67 19.4 35 35 S 12 19 29.91 1013 10 16 0.00 0.00
4:53 pm 16:53 Mostly Cloudy 101 38.3 67 19.4 33 33 SE 12 19 29.90 1012 10 16 0.00 0.00
5:53 pm 17:53 Mostly Cloudy 99 37.2 65 18.3 33 33 VRB 6 9 29.89 1012 10 16 0.00 0.00
6:53 pm 18:53 Mostly Cloudy 98 36.7 64 17.8 33 33 SSE 8 13 29.89 1012 10 16 0.00 0.00
7:53 pm 19:53 Partly Cloudy 98 36.7 63 17.2 32 32 S 9 15 29.89 1012 10 16 0.00 0.00
8:53 pm 20:53 Partly Cloudy 96 35.6 64 17.8 35 35 SE 7 11 29.89 1012 10 16 0.00 0.00
9:53 pm 21:53 Mostly Clear 94 34.4 65 18.3 38 38 SSE 12 19 29.91 1013 10 16 0.00 0.00
10:53 pm 22:53 Clear 93 33.9 66 18.9 41 41 SSE 13 20 29.92 1013 10 16 0.00 0.00
11:53 pm 23:53 Clear 91 32.8 66 18.9 44 44 SSE 10 17 29.93 1014 10 16 0.00 0.00

Powered by AerisWeather